Weather in Ust-Kishert

Russia / Perm Krai     57°21′58″N   57°14′53″E
temp.,
°C
wind,
m/s
gust,
m/s
humid.,
%
clouds,
%
prec.,
mm/h
press.,
hPa
HPBL,
m
3 march, wed
wed323:00−8ssw71590100 0.8 998464
02:00−7ssw61392100 0.1 996405
05:00−5sw4996100 0.4 996284
08:00−4wsw4996100 0.8 995340
11:00−3wsw589499 0.9 996457
14:00−2wsw579088 0.1 997644
17:00−2wsw479082 0.1 997551
20:00−4sw249776 0.3 997124
4 march, thu
thu423:00−4sw489688 2.2 998348
02:00−5sw4896100 1.1 996270
05:00−7nw5995100 1.9 997401
08:00−11w5994100 0.4 997250
11:00−10sw699399 0.4 998347
14:00−7sw61091100 0.1 997645
17:00−7sw71189100 0.2 996632
20:00−8ssw51292100 0.0 995387
5 march, fri
fri523:00−6s61293100 0.4 993655
02:00−8s3594100 0.2 99296
05:00−7wsw4796100 0.3 995167
08:00−9sw5109486 0.2 997244
11:00−6wsw589390 0.5 998436
14:00−4wsw4690100 0.1 999638
17:00−4wsw3591100 0.4 1000533
20:00−7wnw2396100 0.4 100051
6 march, sat
sat623:00−10nnw3597100 0.4 1002100
02:00−13nw469799 0.1 1004112
05:00−16wnw369799 0.1 1007133
08:00−19w469988 0.0 100991
11:00−15wsw469489 0.1 1010301
14:00−12w469096 0.0 1010520
17:00−11wsw348798 0.1 1010499
20:00−16sw239426 0.0 100920
7 march, sun
sun723:00−18sw349813 0.0 100943
02:00−16sw489578 0.1 1008174
05:00−18sw479775 0.1 1009125
08:00−18wsw479697 0.1 1009163
11:00−16wsw469398 0.2 1010352
14:00−13wsw468464 0.0 1010645
17:00−12sw578677 0.1 1010961
20:00−16sw5119486 0.1 1011238